LKMT Weather Reports


time (UTC)temp
C
wind
direction
speed
KPH
gust
KPH
rain 1hr
cm
rain 24hr
cm
rain mn
cm
humidity
%
barometer
mb
20260906213224 11 150 1.6 0.0 0.00 0.00 0.00 76 1028.0
20260906212155 11 0 0.0 0.0 0.00 0.00 0.00 76
20260906210242 12 0 0.0 0.0 0.00 0.00 0.00 71 1028.0
20260906203224 12 0 1.6 0.0 0.00 0.00 0.00 71 1028.0
20260906202156 12 0 0.0 0.0 0.00 0.00 0.00 66
20260906200244 12 0 0.0 0.0 0.00 0.00 0.00 66 1027.0
20260906193224 12 240 4.8 0.0 0.00 0.00 0.00 62 1028.0
20260906192459 13 0 3.2 0.0 0.00 0.00 0.00 58
20260906190235 12 0 1.6 0.0 0.00 0.00 0.00 62 1027.0
20260906183231 16 70 8.0 0.0 0.00 0.00 0.00 51 1027.0
20260906182157 16 60 8.0 0.0 0.00 0.00 0.00 51
20260906180240 16 50 9.7 0.0 0.00 0.00 0.00 51 1027.0
20260906173231 16 30 11.3 0.0 0.00 0.00 0.00 51 1026.0
20260906172156 17 30 11.3 0.0 0.00 0.00 0.00 45
20260906170225 17 30 14.5 0.0 0.00 0.00 0.00 48 1026.0
20260906163231 18 30 14.5 0.0 0.00 0.00 0.00 42 1026.0
20260906162559 20 40 14.5 0.0 0.00 0.00 0.00 40
20260906160238 20 40 16.1 0.0 0.00 0.00 0.00 40 1026.0
20260906153230 20 30 14.5 0.0 0.00 0.00 0.00 40 1026.0
20260906152138 21 40 14.5 0.0 0.00 0.00 0.00 37
20260906150233 20 30 9.7 0.0 0.00 0.00 0.00 40 1026.0
20260906143230 21 10 11.3 0.0 0.00 0.00 0.00 37 1025.0
20260906142154 20 20 11.3 0.0 0.00 0.00 0.00 37
20260906140233 21 10 9.7 0.0 0.00 0.00 0.00 35 1025.0
20260906133231 21 180 4.8 0.0 0.00 0.00 0.00 35 1025.0
20260906132456 21 260 11.3 0.0 0.00 0.00 0.00 35
20260906130238 21 100 4.8 0.0 0.00 0.00 0.00 35 1025.0
20260906123232 21 340 8.0 0.0 0.00 0.00 0.00 35 1026.0
20260906122157 20 0 8.0 0.0 0.00 0.00 0.00 37
20260906120237 20 10 4.8 0.0 0.00 0.00 0.00 34 1026.0
20260906113231 18 10 8.0 0.0 0.00 0.00 0.00 37 1026.0
20260906112158 20 340 14.5 0.0 0.00 0.00 0.00 40
20260906110240 20 360 11.3 0.0 0.00 0.00 0.00 37 1026.0
20260906103231 20 320 12.9 0.0 0.00 0.00 0.00 37 1026.0
20260906102614 20 300 14.5 0.0 0.00 0.00 0.00 40
20260906100236 18 340 16.1 0.0 0.00 0.00 0.00 39 1026.0
20260906093231 17 350 12.9 0.0 0.00 0.00 0.00 42 1026.0
20260906092211 17 300 11.3 0.0 0.00 0.00 0.00 48
20260906090234 17 290 11.3 0.0 0.00 0.00 0.00 52 1026.0
20260906083230 17 290 11.3 0.0 0.00 0.00 0.00 48 1025.0
20260906082213 17 320 11.3 0.0 0.00 0.00 0.00 55
20260906080235 17 0 8.0 0.0 0.00 0.00 0.00 55 1025.0
20260906073231 17 230 11.3 0.0 0.00 0.00 0.00 59 1025.0
20260906072526 16 230 8.0 0.0 0.00 0.00 0.00 67
20260906070305 15 240 9.7 0.0 0.00 0.00 0.00 67 1025.0
20260906063232 15 260 11.3 0.0 0.00 0.00 0.00 67 1025.0
20260906062211 13 240 14.5 0.0 0.00 0.00 0.00 71
20260906060232 13 240 12.9 0.0 0.00 0.00 0.00 76 1024.0
20260906053216 11 230 11.3 0.0 0.00 0.00 0.00 87 1024.0
20260906052138 11 230 11.3 0.0 0.00 0.00 0.00 81
20260906050234 10 230 11.3 0.0 0.00 0.00 0.00 87 1024.0
20260906043224 11 230 9.7 0.0 0.00 0.00 0.00 81 1024.0
20260906042629 11 230 8.0 0.0 0.00 0.00 0.00 87
20260906040231 12 240 8.0 0.0 0.00 0.00 0.00 81 1023.0
20260906033224 12 200 4.8 0.0 0.00 0.00 0.00 82 1023.0
20260906032226 12 220 8.0 0.0 0.00 0.00 0.00 76
20260906030234 12 220 8.0 0.0 0.00 0.00 0.00 81 1023.0
20260906023225 12 220 8.0 0.0 0.00 0.00 0.00 82 1023.0
20260906022211 12 220 8.0 0.0 0.00 0.00 0.00 82
20260906020235 12 220 9.7 0.0 0.00 0.00 0.00 82 1023.0
20260906013224 12 250 4.8 0.0 0.00 0.00 0.00 82 1022.0
20260906012532 13 250 8.0 0.0 0.00 0.00 0.00 76
20260906010236 12 240 8.0 0.0 0.00 0.00 0.00 82 1022.0
20260906003224 13 200 8.0 0.0 0.00 0.00 0.00 82 1022.0
20260906002226 13 200 8.0 0.0 0.00 0.00 0.00 76
20260906000234 13 210 8.0 0.0 0.00 0.00 0.00 82 1022.0
20260905233223 15 0 3.2 0.0 0.00 0.00 0.00 77 1022.0
20260905232210 16 0 3.2 0.0 0.00 0.00 0.00 67
20260905230237 15 360 9.7 0.0 0.00 0.00 0.00 67 1022.0
20260905223224 15 360 9.7 0.0 0.00 0.00 0.00 67 1022.0
20260905222630 15 10 14.5 0.0 0.00 0.00 0.00 67
20260905220236 15 10 14.5 0.0 0.00 0.00 0.00 67 1022.0